Regional Weather Roundup
Issued by NWS

Home | Current Version | Previous Version | Graphics & Text | Print | Product List | Glossary On
Versions: 1 2 3 4 5 6 7 8 9 10 11 12 13 14 15 16 17 18 19 20 21 22 23 24 25 26 27 28 29 30 31 32 33 34 35 36 37 38 39 40 41 42 43 44 45 46 47 48 49 50
000
ASUS43 KLOT 230307
RWRIL

ILLINOIS REGIONAL WEATHER ROUNDUP
NATIONAL WEATHER SERVICE CHICAGO/ROMEOVILLE IL
1000 PM CDT WED MAR 22 2017

NOTE: "FAIR" INDICATES FEW OR NO CLOUDS BELOW 12,000 FEET WITH NO
SIGNIFICANT WEATHER AND/OR OBSTRUCTIONS TO VISIBILITY.

* THESE STATIONS ARE NOT UNDER NWS QUALITY CONTROL. THEY ALSO MAY NOT
  REPORT WEATHER SUCH AS PRECIPITATION OR FOG.

ILZ001-002-007-009-015-016-024-230400-
NORTHWEST ILLINOIS

CITY           SKY/WX    TMP DP  RH WIND       PRES   REMARKS
MOLINE         CLOUDY    39  21  48 SE10      30.41S WCI  32
STERLING*      CLOUDY    35  21  56 E10       30.44F WCI  27
SAVANNA*       CLOUDY    37  21  53 SE9       30.43R WCI  30
$$

ILZ003-004-008-010-011-017-018-230400-
NORTH CENTRAL ILLINOIS

CITY           SKY/WX    TMP DP  RH WIND       PRES   REMARKS
ROCKFORD       PTCLDY    30  17  58 E12       30.47F WCI  20
FREEPORT*      MOCLDY    32  19  59 E15       30.46S WCI  22
ROCHELLE*      CLOUDY    30  18  62 E13       30.46S WCI  20
DE KALB*       CLEAR     27  17  68 E8        30.46F WCI  18
PERU*          CLOUDY    32  19  60 E12       30.46S WCI  23
$$

ILZ005-006-012>014-019>023-230400-
NORTHEAST ILLINOIS

CITY           SKY/WX    TMP DP  RH WIND       PRES   REMARKS
CHICAGO-OHARE  PTCLDY    30  18  60 E7        30.47F WCI  23
CHICAGO-MIDWAY PTCLDY    32  21  64 VRB6      30.49F WCI  26
AURORA         CLEAR     28  18  66 E6        30.47F WCI  22
LANSING*       CLEAR     29  24  80 E3        30.50R
JOLIET*        CLEAR     31  22  69 E8        30.48F WCI  23
WAUKEGAN       CLEAR     22  18  85 CALM      30.48F
DUPAGE AIRPORT CLEAR     27  19  72 E7        30.46F WCI  19
KANKAKEE*      PTCLDY    28  22  76 CALM      30.49S
WHEELING       CLEAR     28  19  69 CALM      30.49F
MORRIS*        CLEAR     28  20  72 E5        30.47F WCI  23
ROMEOVILLE*    CLEAR     28  23  81 E8        30.48F WCI  20
NORTHERLY ISL    N/A     31  22  69 E7          N/A  WCI  24
$$

LMZ740>746-230400-
SOUTHERN LAKE MICHIGAN

STATION/POSITION SKY/WX   TEMP    WIND        PRES    VSBY  WAVE
                          AIR SEA DIR/SP/G                  HT/PER
                          (F)     (DEG/KT/KT) (MB)    (MI)  (FT/S)
HARRISON CRIB              32     100/  6/  7   N/A
BURNHAM HARBOR             31      90/  6/  7   N/A
CALUMET HARBOR             32      70/  7/  9 1032.0S
BURNS HARBOR               31      90/  8/  9 1032.8F
MICHIGAN CITY              30      60/  9/ 10   N/A
$$

ILZ025>027-034>036-040-047-049-050-058-095>099-230400-
WEST-CENTRAL ILLINOIS

CITY           SKY/WX    TMP DP  RH WIND       PRES   REMARKS
QUINCY         PTCLDY    42  14  32 E12       30.37R
GALESBURG*     CLOUDY    37  22  56 E10         N/A  WCI  29
MACOMB*        CLOUDY    39  19  45 E10       30.43R WCI  32
JACKSONVILLE*  CLEAR     36  18  48 E7        30.41R WCI  30
PITTSFIELD*    PTCLDY    43  15  32 E9        30.39S
$$

ILZ028>032-037-038-041>044-048-051>054-059>061-230400-
CENTRAL ILLINOIS

CITY           SKY/WX    TMP DP  RH WIND       PRES   REMARKS
PONTIAC        CLOUDY    32  26  78 E9        30.46F WCI  24
BLOOMINGTON    CLOUDY    32  21  64 E13       30.44S WCI  22
DECATUR        CLOUDY    35  20  54 E12       30.43S WCI  27
PEORIA         PTCLDY    37  21  52 E10       30.44R WCI  30
LACON*         CLOUDY    33  24  69 E6        30.44S WCI  27
LINCOLN*       CLOUDY    37  24  61 E9        30.43S WCI  30
SPRINGFIELD    PTCLDY    40  18  41 E12       30.41R
TAYLORVILLE    CLOUDY    38  19  46 E13       30.41R WCI  30
$$

ILZ033-039-045-046-055>057-062-063-230400-
EAST-CENTRAL ILLINOIS

CITY           SKY/WX    TMP DP  RH WIND       PRES   REMARKS
CHAMPAIGN      CLOUDY    33  21  61 E12       30.44F WCI  24
RANTOUL*       PTCLDY    34  25  70 E9        30.45F WCI  27
MATTOON        PTCLDY    35  21  56 E8        30.42S WCI  29
PARIS*         PTCLDY    33  24  69 E8        30.46F WCI  26
$$

ILZ079-100>102-230400-
SOUTHWEST ILLINOIS

CITY           SKY/WX    TMP DP  RH WIND       PRES   REMARKS
ALTON          CLEAR     41  19  42 E9        30.39R
BELLEVILLE     CLOUDY    43  21  41 E6        30.38R
CAHOKIA*       PTCLDY    44  19  36 E9        30.38R
SPARTA*        CLEAR     39  24  54 E6        30.39R WCI  35
$$

ILZ064>066-069>071-074>076-080>082-084>086-088>090-092>094-230400-
SOUTH-CENTRAL ILLINOIS

CITY           SKY/WX    TMP DP  RH WIND       PRES   REMARKS
CARBONDALE     CLEAR     42  23  46 NE7       30.38R
CAIRO*         CLEAR     46  25  44 NE7       30.36R
EFFINGHAM*     CLOUDY   N/A N/A N/A NE9       30.43S
MARION         CLEAR     41  23  48 NE6       30.38S
MT. VERNON     PTCLDY    41  20  43 NE9       30.40S
CENTRALIA*     CLOUDY    41  26  54 E7        30.39R
SALEM*         PTCLDY    42  20  40 E6        30.40S
METROPOLIS*    CLEAR     45  22  39 NE5       30.37S
$$

ILZ067-068-072-073-078-083-087-091-230400-
SOUTHEAST ILLINOIS

CITY           SKY/WX    TMP DP  RH WIND       PRES   REMARKS
LAWRENCEVILLE  CLOUDY    37  20  50 E9        30.43F WCI  30
FLORA*         PTCLDY    42  21  43 E7        30.42R
FAIRFIELD*     CLOUDY    41  20  43 NE7       30.40S
HARRISBURG*    CLEAR     42  23  46 E8        30.39F
ROBINSON*      CLOUDY    37  20  50 E10       30.45F WCI  30
CARMI*         CLOUDY    42  22  43 E10       30.40S
$$

ABBREVIATIONS USED IN REMARKS
   TC - TEMPERATURE IN CELSIUS
  WCI - WIND CHILL INDEX
   HX - HEAT INDEX
  VSB - VISIBILITY
$$




USA.gov is the U.S. government's official web portal to all federal, state and local government web resources and services.